STARLINK-4021 (53149 NORAD) Tracking and Keplerian Element Data

This shows tracking and keplerian element data for the satellite.

Feedback or suggestion? Click here.




ElementValue
Catalog53149
NameSTARLINK-4021
Epoch Orbit1185
Epoch Day270.25001157
Epoch Year2022
RAAN58.1071
Inclination53.2176
Eccentricity0.0001566
Argument of Perigee48.0676
Mean Anonmoly46.6024
Mean Motion15.19433193
Decay Rate-0.01084373
L11 53149U 22083T 22270.25001157 -.01084373 00000+0 -54569-1 0 9998
L22 53149 53.2176 58.1071 0001566 48.0676 46.6024 15.19433193 11855

Live tracking and technical data element details for STARLINK-4021 (NORAD 53149). STARLINK-4021 can be tracked NOW for your location showing map with azimuth and elevation plus other details from your city location.

Track the satellite on the map from your city or location and see movement details for azimuth, elevation, latitude, longitude, range, height, and movement on the map or in text.







IsCatalogInMostPopularTable: catalog: 53149, numindb: 4
Update: records affected: 1



GetName: 53149 STARLINK-4021

Hit Count: updated at: Fri, 30 Sep 2022 03:18:00 GMT